Regional Weather Roundup
Issued by NWS

Home | Current Version | Previous Version | Text Only | Print | Product List | Glossary Off
Versions: 1 2 3 4 5 6 7 8 9 10 11 12 13 14 15 16 17 18 19 20 21 22 23 24 25 26 27 28 29 30 31 32 33 34 35 36 37 38 39 40 41 42 43 44 45 46 47 48 49 50

261
ASUS43 KBIS 261402
RWRND

NORTH DAKOTA REGIONAL WEATHER ROUNDUP
NATIONAL WEATHER SERVICE BISMARCK ND
900 AM CDT MON JUN 26 2017

NOTE: "FAIR" INDICATES FEW OR NO CLOUDS BELOW 12,000 FEET WITH NO
SIGNIFICANT WEATHER AND/OR OBSTRUCTIONS TO VISIBILITY.


NDZ001>003-009>011-017-261500-
NORTHWEST NORTH DAKOTA

CITY           SKY/WX    TMP DP  RH WIND       PRES   REMARKS
WILLISTON      SUNNY     62  46  55 S8        30.22F
MINOT          SUNNY     60  42  51 SW6       30.25S
MINOT AFB        N/A     62  42  48 SW6       30.24F
$$

NDZ018>021-031>035-040>046-261500-
SOUTHWEST NORTH DAKOTA

CITY           SKY/WX    TMP DP  RH WIND       PRES   REMARKS
BISMARCK       SUNNY     55  46  71 CALM      30.29S
DICKINSON      SUNNY     60  44  55 S9        30.23S
GARRISON         N/A     56  46  69 S3        30.26S
HETTINGER ARPT SUNNY     58  43  57 SE7       30.27S
$$

NDZ004>008-012>016-024-026-027-054-261500-
NORTHEAST NORTH DAKOTA

CITY           SKY/WX    TMP DP  RH WIND       PRES   REMARKS
GRAND FORKS    SUNNY     63  46  54 NW10      30.22S
GRND FRKS AFB  SUNNY     63  45  51 NW8       30.23S
DEVILS LAKE    SUNNY     59  44  57 W9        30.26S
$$

NDZ022-023-025-028>030-036>039-047>053-261500-
SOUTHEAST NORTH DAKOTA

CITY           SKY/WX    TMP DP  RH WIND       PRES   REMARKS
FARGO          SUNNY     61  45  55 NW6       30.24R
JAMESTOWN      SUNNY     59  45  59 NW7       30.26S
$$





USA.gov is the U.S. government's official web portal to all federal, state and local government web resources and services.